Total_Precipitation_Accumulation
2.14 3.44 1.55 0.66 0.29 0.17 0.27 0.15 0.14 0.24 0.39 0.55 0.65 0.83 0.67 0.71 0.86 1.21 1.25 0.80 0.99 1.50 2.12 3.25 3.02 3.78 3.44 3.61 3.67 2.65 2.88 2.84 2.40 2.01 2.21 1.96 1.77 1.11 0.72 0.72 0.83 0.58 0.69 0.75
2.24 1.72 0.65 0.56 0.41 0.21 0.47 0.28 0.26 0.42 0.42 0.34 0.41 0.66 0.66 0.48 0.46 0.77 1.39 1.64 1.65 1.74 1.97 3.09 3.07 3.74 4.49 3.87 4.11 4.14 3.58 2.73 2.75 3.10 2.45 2.70 2.45 2.35 1.93 1.52 1.43 1.32 1.23 1.28
1.80 1.26 0.79 0.89 0.54 0.33 0.29 0.18 0.29 0.62 0.61 0.35 0.19 0.32 0.46 0.38 0.22 0.42 1.17 1.96 2.71 3.16 2.99 3.93 3.01 3.18 3.56 4.24 4.14 4.57 4.48 3.28 2.58 3.29 3.21 3.09 3.48 3.44 3.09 2.76 1.99 2.29 2.55 2.59
1.80 1.16 1.09 1.15 0.60 0.24 0.16 0.15 0.56 0.50 0.59 0.51 0.26 0.28 0.27 0.31 0.24 0.14 0.28 0.85 2.15 2.80 2.15 2.32 2.22 2.87 2.74 3.00 3.61 3.08 3.87 3.28 2.60 2.64 3.26 3.03 2.59 2.71 2.80 2.89 2.92 2.83 2.97 3.60
1.73 1.27 1.56 1.20 0.61 0.23 0.19 0.19 0.45 0.62 0.79 0.82 0.32 0.60 0.30 0.23 0.31 0.21 0.09 0.24 0.46 1.03 1.31 1.56 2.20 2.07 2.11 2.26 3.12 3.19 3.68 3.20 3.16 3.16 3.01 3.42 3.19 2.54 2.27 2.37 2.34 2.48 2.50 2.67
1.29 1.55 1.48 0.84 0.69 0.35 0.30 0.42 0.66 0.96 1.15 1.29 0.68 0.74 0.54 0.39 0.50 0.38 0.17 0.15 0.35 0.60 0.71 0.81 0.92 1.16 1.41 1.86 2.02 2.45 2.56 2.49 2.69 3.94 3.29 3.31 3.72 3.47 2.75 2.26 2.27 2.30 2.54 2.62
1.95 1.66 1.17 0.84 1.13 1.01 1.31 1.56 1.84 1.62 1.53 0.93 0.57 0.75 0.69 0.63 0.38 0.49 0.39 0.33 0.61 0.97 0.98 1.16 1.00 0.82 0.78 0.86 1.35 1.66 1.48 1.87 1.91 2.46 2.91 3.06 3.12 3.27 3.17 3.11 2.93 2.76 2.56 2.36
1.70 1.97 1.43 1.10 1.31 1.86 1.40 1.19 1.34 0.86 0.60 0.37 0.25 0.52 0.80 0.62 0.44 0.46 0.44 0.89 1.27 1.64 1.32 1.54 1.86 1.47 1.14 0.97 1.24 1.14 1.18 1.45 1.40 1.69 2.05 2.28 2.37 2.18 2.12 2.25 2.40 2.43 2.58 2.55
0.77 1.05 0.69 0.65 0.67 1.08 1.05 0.98 0.70 0.87 0.34 0.44 0.44 0.42 0.48 0.53 0.59 0.84 1.09 1.58 1.39 1.29 1.04 1.27 1.43 1.09 0.83 1.28 1.56 1.21 1.08 1.45 1.38 1.36 1.25 1.46 1.81 1.55 1.30 1.43 1.41 1.38 1.41 1.60
0.38 0.86 0.80 0.74 0.83 0.90 0.63 0.39 0.61 1.23 0.63 0.40 0.30 0.37 0.82 0.85 1.22 1.41 1.68 1.40 1.24 1.35 1.04 0.78 0.54 0.37 0.48 0.62 0.62 0.88 0.81 0.62 0.64 0.77 0.66 0.91 1.10 1.31 1.24 1.17 0.98 0.86 0.86 0.94
0.45 0.71 0.86 1.04 1.02 0.79 0.66 0.65 0.52 0.58 0.31 0.22 0.14 0.63 0.88 1.27 1.27 1.08 0.95 0.88 0.65 0.36 0.17 0.08 0.03 0.03 0.04 0.06 0.10 0.20 0.29 0.27 0.33 0.37 0.31 0.42 0.57 0.49 0.56 0.75 0.82 0.80 0.72 0.78
0.38 0.56 0.77 0.62 0.21 0.17 0.28 0.28 0.20 0.78 0.40 0.27 0.22 0.41 0.23 0.28 0.38 0.32 0.16 0.06 0.02 0.01 0.00 0.01 0.01 0.01 0.01 0.01 0.02 0.02 0.03 0.04 0.06 0.08 0.15 0.21 0.31 0.35 0.32 0.35 0.41 0.38 0.35 0.42
0.29 0.74 0.79 0.77 0.52 0.49 0.65 0.35 0.28 0.62 1.13 0.62 0.35 0.16 0.01 0.02 0.02 0.01 0.01 0.03 0.01 0.00 0.00 0.00 0.00 0.00 0.00 0.00 0.02 0.04 0.04 0.02 0.02 0.05 0.12 0.16 0.21 0.25 0.25 0.31 0.32 0.38 0.46 0.49
0.66 0.61 0.75 0.75 0.74 0.79 0.55 0.31 0.49 1.00 1.40 0.41 0.18 0.03 0.01 0.01 0.03 0.02 0.03 0.04 0.06 0.02 0.01 0.00 0.00 0.00 0.00 0.01 0.05 0.05 0.04 0.03 0.06 0.08 0.11 0.14 0.18 0.24 0.35 0.47 0.56 0.66 0.71 0.74
0.73 0.94 1.21 0.74 0.38 0.93 0.53 0.29 0.38 0.87 0.61 0.64 0.20 0.07 0.02 0.01 0.05 0.10 0.09 0.11 0.06 0.03 0.01 0.01 0.01 0.01 0.01 0.01 0.03 0.05 0.08 0.11 0.10 0.12 0.13 0.13 0.14 0.14 0.15 0.18 0.26 0.42 0.59 0.73
0.47 0.79 0.96 0.56 0.17 0.33 0.34 0.15 0.21 0.20 0.31 0.41 0.17 0.22 0.05 0.02 0.12 0.29 0.17 0.22 0.12 0.07 0.03 0.02 0.02 0.01 0.01 0.01 0.01 0.04 0.11 0.14 0.19 0.19 0.16 0.13 0.11 0.12 0.15 0.15 0.16 0.20 0.28 0.39
0.28 0.46 0.84 0.70 0.37 0.25 0.42 0.26 0.17 0.15 0.20 0.33 0.31 0.19 0.07 0.07 0.29 0.31 0.31 0.30 0.09 0.03 0.01 0.00 0.00 0.00 0.00 0.00 0.02 0.05 0.06 0.11 0.14 0.15 0.13 0.13 0.14 0.18 0.16 0.14 0.13 0.17 0.33 0.52
0.09 0.29 0.70 0.71 0.56 0.63 0.43 0.25 0.11 0.14 0.16 0.21 0.24 0.14 0.04 0.16 0.20 0.14 0.30 0.25 0.11 0.01 0.01 0.00 0.00 0.00 0.00 0.01 0.02 0.04 0.08 0.15 0.25 0.32 0.36 0.30 0.47 0.63 0.45 0.51 0.63 0.72 0.52 0.55
0.03 0.20 0.66 0.62 0.41 0.30 0.09 0.13 0.19 0.13 0.14 0.09 0.10 0.15 0.12 0.10 0.13 0.19 0.13 0.03 0.02 0.02 0.01 0.00 0.00 0.00 0.02 0.05 0.09 0.11 0.12 0.13 0.24 0.42 0.66 0.66 0.70 0.75 0.83 1.23 1.18 1.33 1.23 1.02
0.03 0.10 0.72 0.62 0.71 0.18 0.02 0.05 0.03 0.02 0.09 0.02 0.02 0.06 0.12 0.15 0.36 0.28 0.09 0.02 0.01 0.01 0.01 0.02 0.02 0.04 0.09 0.14 0.16 0.16 0.15 0.16 0.26 0.31 0.26 0.64 0.79 0.66 0.62 0.70 0.76 0.89 0.69 0.77
0.13 0.32 0.69 0.45 1.05 0.31 0.00 0.00 0.03 0.26 0.20 0.09 0.13 0.19 0.16 0.15 0.12 0.09 0.08 0.07 0.03 0.02 0.02 0.03 0.07 0.12 0.15 0.18 0.23 0.34 0.30 0.47 0.58 0.85 0.63 0.66 0.80 0.66 0.51 0.58 0.40 0.44 0.52 0.46
0.08 0.47 0.47 0.70 1.16 0.42 0.04 0.08 0.27 0.37 0.37 0.40 0.30 0.18 0.18 0.14 0.10 0.09 0.02 0.02 0.10 0.22 0.31 0.36 0.30 0.24 0.27 0.28 0.42 0.77 0.69 0.67 0.71 0.64 0.70 0.44 0.40 0.31 0.23 0.18 0.21 0.22 0.17 0.16
0.03 0.07 0.24 0.41 0.25 0.12 0.26 0.42 0.58 0.60 0.50 0.32 0.23 0.14 0.15 0.13 0.22 0.14 0.05 0.09 0.13 0.19 0.39 0.64 0.58 0.52 0.61 0.45 0.45 0.60 0.47 0.29 0.15 0.19 0.14 0.07 0.04 0.05 0.05 0.06 0.08 0.13 0.17 0.20
0.06 0.07 0.42 0.51 0.34 0.27 0.44 0.58 0.53 0.40 0.36 0.26 0.17 0.11 0.07 0.09 0.10 0.13 0.14 0.13 0.13 0.11 0.10 0.10 0.09 0.11 0.16 0.15 0.14 0.18 0.12 0.07 0.06 0.08 0.07 0.09 0.12 0.14 0.09 0.14 0.20 0.25 0.26 0.27
0.31 0.29 0.47 0.69 0.39 0.54 0.55 0.41 0.45 0.41 0.33 0.25 0.20 0.16 0.16 0.14 0.16 0.14 0.16 0.15 0.14 0.13 0.11 0.08 0.07 0.05 0.03 0.01 0.01 0.01 0.01 0.05 0.11 0.15 0.21 0.26 0.27 0.29 0.23 0.26 0.32 0.40 0.41 0.42
0.29 0.42 0.78 0.89 0.61 0.87 0.58 0.36 0.35 0.31 0.28 0.23 0.17 0.15 0.15 0.16 0.17 0.14 0.17 0.17 0.16 0.13 0.09 0.07 0.07 0.08 0.11 0.14 0.12 0.09 0.08 0.11 0.17 0.25 0.28 0.36 0.43 0.49 0.60 0.75 0.82 0.73 0.60 0.59